Regional Weather Roundup
Issued by NWS

Home | Current Version | Previous Version | Graphics & Text | Print | Product List | Glossary On
Versions: 1 2 3 4 5 6 7 8 9 10 11 12 13 14 15 16 17 18 19 20 21 22 23 24 25 26 27 28 29 30 31 32 33 34 35 36 37 38 39 40 41 42 43 44 45 46 47 48 49 50
538
ASUS44 KJAN 221603
RWRMS

MISSISSIPPI HOURLY WEATHER ROUNDUP
NATIONAL WEATHER SERVICE JACKSON MS
1100 AM CDT FRI AUG 22 2014

NOTE: "FAIR: INDICATES FEW OR NO CLOUDS BELOW 12,000 FEET WITH NO
SIGNIFICANT WEATHER AND/OR OBSTRUCTIONS TO VISIBILITY.

MSZ001>002-007>008-010>013-018>021-025>028-034>036-221700-
NORTHWEST MISSISSIPPI

CITY           SKY/WX    TMP DP  RH WIND       PRES   REMARKS
CLARKSDALE     FAIR      86  77  74 CALM      30.11F HX  97
CLEVELAND      FAIR      86  76  71 W3        30.10S HX  95
GREENWOOD      SUNNY     86  73  65 W5        30.12S HX  93
GREENVILLE     SUNNY     88  72  58 W9        30.10S HX  94
GRENADA        FAIR      86  73  66 W5        30.12S HX  93
OLIVE BRANCH   MOSUNNY   88  79  74 SW8       30.10S HX 102
OXFORD         FAIR      84  73  70 W5        30.13F HX  91
TUNICA         MOSUNNY   88  73  62 S5        30.10F HX  96
$$

MSZ003>006-009-014>017-022>024-029>033-037>039-221700-
NORTHEAST MISSISSIPPI

CITY           SKY/WX    TMP DP  RH WIND       PRES   REMARKS
BELMONT        FAIR      85  75  72 CALM      30.12F HX  94
COLUMBUS AFB   SUNNY     89  73  57 VRB3      30.12F HX  96
CORINTH        FAIR      88  73  62 W5        30.10S HX  96
GOLDN TRIANGLE SUNNY     91  72  52 NW7       30.13S HX  98
STARKVILLE     FAIR      88  72  58 CALM      30.12S HX  94
TUPELO         SUNNY     90  72  55 VRB5      30.11F HX  97
$$

MSZ040-058-221700-
CENTRAL MISSISSIPPI

CITY           SKY/WX    TMP DP  RH WIND       PRES   REMARKS
JACKSON INTL   MOSUNNY   88  71  57 CALM      30.14R HX  94
JACKSON HAWKNS SUNNY     88  74  63 CALM      30.14S HX  96
MERIDIAN KEY   SUNNY     89  72  56 N7        30.14S HX  96
MERIDIAN NAS   MOSUNNY   90  70  51 NW6       30.14S HX  95
RAYMOND        FAIR      84  81  89 W6        30.14R HX  98
VICKSBURG      SUNNY     86  74  67 W6        30.12S HX  94
$$

MSZ059>079-221700-
SOUTH MISSISSIPPI

CITY           SKY/WX    TMP DP  RH WIND       PRES   REMARKS
BROOKHAVEN     FAIR      86  77  74 W6        30.16S HX  97
COLUMBIA       FAIR      88  75  66 MISG      30.13R HX  97
HATTIESBURG    SUNNY     90  75  61 N8G17     30.14S HX 100
MCCOMB         SUNNY     87  74  64 VRB6      30.14S HX  95
NATCHEZ        MOSUNNY   84  77  79 W10       30.14S HX  94
PINE BELT      PTSUNNY   90  73  58 NW6       30.16R HX  98
$$

MSZ080>082-221700-
COASTAL MISSISSIPPI

CITY           SKY/WX    TMP DP  RH WIND       PRES   REMARKS
BAY ST LOUIS   SUNNY    N/A N/A N/A VRB6      30.12S
BILOXI         SUNNY     91  73  55 VRB3      30.11S HX 100
PASCAGOULA     SUNNY     91  73  55 VRB7      30.11S HX  99
GULFPORT       SUNNY     91  73  55 VRB5      30.11S HX  99
$$



USA.gov is the U.S. government's official web portal to all federal, state and local government web resources and services.